926  
ASUS46 KPDT 210904  
RWRPDT  
PENDLETON REGIONAL WEATHER ROUNDUP  
NATIONAL WEATHER SERVICE PENDLETON OREGON  
200 AM PDT SUN JUL 21 2019  
 
NOTE: FAIR INDICATES FEW OR NO CLOUDS BELOW 12,000 FEET WITH NO  
SIGNIFICANT WEATHER AND/OR S TO VISIBILITY
.  
 
# INDICATES UNOFFICIAL STATION AND DATA  
 
WAZ520-211010-  
EAST SLOPES OF WASHINGTON CASCADES  
 
CITY SKY/WX TMP DP RH WIND PRES REMARKS
 
#GLENWOOD N/A 42 38 86 CALM 30.01F  
#NELSON 3SW N/A 53 41 64 CALM 30.20S  
#TROUT LAKE 1NE N/A 46 41 83 CALM 29.99S  
#TROUT LAKE 1E N/A 43 38 82 CALM 30.07S  

 
 
WAZ521-211010-  
SIMCOE HIGHLANDS  
 
CITY SKY/WX TMP DP RH WIND PRES REMARKS
 
#CENTERVILLE 1SWN/A 47 32 56 CALM 29.93S  
#LYLE 6NE N/A 63 39 41 N3 29.96F  
#PITT 4SE N/A 59 35 40 CALM 29.98F  

 
 
WAZ026-211010-  
KITTITAS VALLEY  
 
CITY SKY/WX TMP DP RH WIND PRES REMARKS
 
ELLENSBURG AP CLEAR 55 39 55 CALM 30.06R  
#ELLENSBURG CWU N/A 54 42 64 CALM 29.95S  
#ELLENSBURG 3NE N/A 50 41 71 CALM 28.14S  
#ELLENSBURG 1E N/A 51 43 74 CALM 30.02S  
#KITTITAS 3S N/A 46 43 89 CALM 29.99S  
#THORP 6N N/A 55 45 69 CALM 30.04S  

 
 
WAZ027-211010-  
YAKIMA VALLEY  
 
CITY SKY/WX TMP DP RH WIND PRES REMARKS
 
SUNNYSIDE AP CLEAR 52 47 83 CALM 30.01S  
YAKIMA AIRPORT CLEAR 51 39 63 W8 30.04R  
YAKIMA-VAGABOND CLEAR 58 31 36 S3 30.02F  
#MABTON N/A 54 44 69 S2 30.00R  
#NACHES 2SW N/A 58 41 53 W2 30.06S  
#TERRACE HTS N/A 56 40 55 CALM 29.95F  
#TOPPENISH N/A 64 43 46 CALM 29.90S  

 
 
WAZ028-211010-  
LOWER COLUMBIA BASIN...WASHINGTON  
 
CITY SKY/WX TMP DP RH WIND PRES REMARKS
 
PASCO CLEAR 54 49 83 N8 29.99S  
PROSSER AWOS N/A 54 46 74 SW3 30.03S  
RICHLAND AWOS CLEAR 56 45 66 W6 29.99S  
#BENTON CITY N/A 55 44 66 CALM 29.88S  
#CONNELL 5N N/A 63 41 44 N5 29.98S  
#CONNELL 5NW N/A 62 42 48 E8 29.94S  
#ELTOPIA 6NW N/A 59 42 53 NE1 28.97S  
#KENNEWICK 3S N/A 64 42 45 CALM 29.96S  
#SAGEMOOR 2W N/A 61 42 50 N3 29.82F  
#TOUCHET 2S N/A 48 41 77 CALM 29.94R  

 
 
WAZ029-211010-  
FOOTHILLS OF THE BLUES...WASHINGTON  
 
CITY SKY/WX TMP DP RH WIND PRES REMARKS
 
WALLA WALLA AP CLEAR 63 36 36 CALM 29.99R  
#CLYDE 6NW N/A 61 36 39 E7 29.95S  
#LOWDEN 2SE N/A 51 42 71 CALM 29.94R  
#PRESCOTT N/A 56 38 51 CALM 29.94S  
#WALLA WALLA 5E N/A 58 37 45 NE2 N/A  
#WALLA WALLA U N/A 61 45 56 CALM 29.94S  

 
 
WAZ030-211010-  
BLUE MOUNTAINS...WASHINGTON  
 
CITY SKY/WX TMP DP RH WIND PRES REMARKS
 
#DIXIE 5SE N/A 67 34 29 N9 29.96F  

 
 
ORZ009-041-WAZ024-211010-  
COLUMBIA RIVER GORGE  
 
CITY SKY/WX TMP DP RH WIND PRES REMARKS
 
HOOD RIVER AP CLEAR 54 41 61 S7 29.99S  
THE DALLES AP CLEAR 59 37 44 E6 29.97S  
#CELILO DOT N/A 64 40 41 SE1 N/A  
#LYLE N/A 64 40 41 N3 29.96S  
#RUFUS DOT N/A 64 37 37 S6 N/A  
 

 
 
ORZ510-211010-  
NORTH CENTRAL OREGON  
 
CITY SKY/WX TMP DP RH WIND PRES REMARKS
 
#COW CYN RST AREN/A 63 31 30 NE7 N/A  
#DUFUR N/A 49 35 58 CALM 29.94F  
#DUFUR 9E N/A 65 33 30 SE1 29.99F  
#GRASS VALLEY 1SN/A 57 34 42 E8 30.18S  
#KENT DOT N/A 59 27 29 E5 N/A  
#SHANIKO 5WSW N/A 61 31 32 NE16 N/A  
#TYGH VALLEY 2NEN/A 56 34 43 CALM 29.95F  
#WAPANITIA AIRPON/A 56 33 42 CALM 29.97F  
#WASCO 5NE N/A 57 32 38 SW3 29.95S  

 
 
ORZ511-211010-  
CENTRAL OREGON  
 
CITY SKY/WX TMP DP RH WIND PRES REMARKS
 
BEND AIRPORT CLEAR 59 32 36 W8 30.06S  
MADRAS AIRPORT CLEAR 54 34 47 W3 30.05S  
PRINEVILLE AP CLEAR 52 30 43 S5 30.05R  
REDMOND AIRPORT CLEAR 60 32 35 W8 30.04S  
#ASHWOOD SCHOOL N/A 58 33 39 S7 29.99F  
#BEND-KIM LN N/A 56 35 45 W5 29.90S  
#CULVER N/A 55 37 51 CALM 29.34F  
#PRINEVILLE N/A 45 40 82 CALM 30.03R  
#WARM SPRINGS N/A 65 34 31 CALM 29.81S  
 

 
 
 
ORZ509-211010-  
EAST SLOPES OF OREGON CASCADES  
 
CITY SKY/WX TMP DP RH WIND PRES REMARKS
 
SISTERS AWOS N/A 50 36 58 CALM 30.04S  
#BLUE BOX PASS N/A 57 N/A N/A CALM N/A  
#CAMP SHERMAN N/A 44 32 62 CALM 30.01F  
#LA PINE 4NW N/A 48 32 54 CALM 29.93S  
#LAVA BUTTE DOT N/A 51 27 39 CALM N/A  
#SISTERS ODOT N/A 47 33 58 CALM N/A  
#TUMALO 3W N/A 61 33 35 NW5 29.81S  
#WANOGA BUTTE D N/A 54 26 34 NE3 N/A  
 

 
 
ORZ044-211010-  
LOWER COLUMBIA BASIN...OREGON  
 
CITY SKY/WX TMP DP RH WIND PRES REMARKS
 
HERMISTON CLEAR 55 42 61 SE5 29.97R  
#BOARDMAN SCHOOLN/A 54 43 66 NE1 29.92S  
#ECHO 8SW N/A 54 44 69 CALM 29.98S  
#I-84 EX 198 DOTN/A 62 42 48 NE6 N/A  
#IONE SCHOOL N/A 56 38 51 CALM 29.97S  
#UMATILLA N/A 61 42 50 CALM 29.88S  

 
 
ORZ507-211010-  
NORTHERN FOOTHILLS OF THE BLUES  
 
CITY SKY/WX TMP DP RH WIND PRES REMARKS
 
PENDLETON AIRPT CLEAR 57 38 49 SE9 29.99S  
#ADAMS 3WNW N/A 45 31 58 CALM 29.95S  
#ATHENA N/A 49 37 63 CALM 29.99S  
#CAYUSE N/A 58 40 51 E2 29.94S  
#HELIX SCHOOL N/A 49 35 58 CALM 29.96S  
#HELIX 3N N/A 60 34 37 SE5 30.02S  
#HOLDMAN 6E N/A 59 37 44 CALM 29.75S  
#M-FREEWATER 5SEN/A 54 41 61 CALM 29.98S  
#PENDLETON DNTN N/A 55 32 41 NE3 29.96S  
#PDT AQUATIC CTRN/A 55 33 43 CALM 30.00S  
#PDT SUNRIDGE N/A 51 40 66 CALM 30.01S  
#PENDLETON 6SE N/A 55 39 55 CALM 29.91S  
#TUTUILLA N/A 46 38 73 CALM 30.05S  
#UMAPINE 2E N/A 49 41 74 CALM 29.95R  
 

 
 
ORZ508-211010-  
SOUTHERN FOOTHILLS OF THE BLUES  
 
CITY SKY/WX TMP DP RH WIND PRES REMARKS
 
#AJAX N/A 69 33 26 CALM 30.17F  
#CONDON 5W N/A 61 33 35 E9 30.03S  
#HEPPNER EOC N/A 59 39 47 E5 29.89F  
#HEPPNER 4NE N/A 58 38 47 E3 29.95F  
#LEXINGTON 2SE N/A 54 39 57 SE5 29.97F  
#OLEX 4N N/A 57 34 42 E2 29.97F  
#RUGGS 5NE N/A 58 34 40 CALM 30.20S  
#RUGGS 2SW N/A 57 36 45 S6 29.96F  
 

 
 
ORZ502-503-211010-  
BLUE MOUNTAINS  
 
CITY SKY/WX TMP DP RH WIND PRES REMARKS
 
MEACHAM CLEAR 41 34 76 CALM 30.09S  
#BATTLE MTN DOT N/A 50 31 48 NW2 N/A  
#N POWDER DOT N/A 48 38 68 N3 N/A  
#TOLLGATE N/A 54 34 47 E2 30.16S  
#TROY SCHOOL N/A 53 42 66 CALM 29.86S  
#WESTON 4E N/A 61 35 38 CALM 29.91F  

 
 
ORZ505-211010-  
JOHN DAY BASIN  
 
CITY SKY/WX TMP DP RH WIND PRES REMARKS
 
JOHN DAY CLEAR 59 33 37 CALM 30.07F  
#DAYVILLE SCHOOLN/A 57 34 42 CALM 29.99S  
#MITCHELL 8NW N/A 63 33 32 CALM 29.95S  
#MONUMENT HS N/A 55 38 53 CALM 29.98S  

 
 
ORZ506-211010-  
OCHOCO AND JOHN DAY HIGHLANDS  
 
CITY SKY/WX TMP DP RH WIND PRES REMARKS
 
#HORSE RIDGE DO N/A 44 25 47 NE3 N/A  
#PAULINA ODOT N/A 54 N/A N/A CALM N/A  
#PRAIRIE CITY N/A 46 37 71 CALM 30.18S  
#SENECA 9NW N/A 44 31 60 CALM 29.94F  

 
 
ORZ049-211010-  
GRANDE RONDE VALLEY  
 
CITY SKY/WX TMP DP RH WIND PRES REMARKS
 
LA GRANDE CLEAR 58 34 40 N7 30.07R  
#COVE SCHOOL N/A 48 37 65 CALM 30.06S  
#COVE 6NW N/A 51 38 61 CALM 29.98S  
#ELGIN 1E N/A 57 35 43 CALM N/A  
#ISLAND CITY 4N N/A 59 51 75 CALM 29.93S  
#LADD CYN DOT N/A 56 38 51 SE14 N/A  
#UNION 1S N/A 52 38 59 CALM 29.98S  

 
 
ORZ050-211010-  
WALLOWA COUNTY  
 
CITY SKY/WX TMP DP RH WIND PRES REMARKS
 
#IMNAHA 10S N/A 54 36 50 SW6 30.08S  
#JOSEPH 3N N/A 41 33 73 CALM 30.14F  
#LOSTINE N/A 49 37 63 CALM 29.82S  
#LOSTINE 3SE N/A 47 35 63 W3 30.18F  
#MT HOWARD 8000 N/A 48 21 34 CALM 30.29F  
#PROMISE 1S N/A 50 36 58 S2 30.09F  
#WALLOWA SCHOOL N/A 44 37 76 CALM 30.05S  
 

 
 
CLICK HERE TO GO TO PREVIOUS BULLETINS.

The Nexlab OR Page
The Nexlab WA Page Main Text Page